Orbital Elements at Epoch 2459200.5 (2020-Dec-17.0) TDB
Reference: JPL 18 (heliocentric ecliptic J2000)
Element | Value | Uncertainty (1-sigma) | Units |
e | .04439897368512406 | 5.6654e-08 | |
a | 2.756409370473592 | 1.7253e-08 | au |
q | 2.634027623368506 | 1.6222e-07 | au |
i | 4.224770785843091 | 6.1917e-06 | deg |
node | 348.2805401470133 | 5.186e-05 | deg |
peri | 334.2885478131805 | 7.9654e-05 | deg |
M | 30.00462640531873 | 5.7149e-05 | deg |
tp | 2459061.184407538825 (2020-Jul-30.68440754) | 0.00026596 | TDB |
period | 1671.529337126915 4.58 | 1.5694e-05 4.297e-08 | d yr |
n | .2153716312384806 | 2.0221e-09 | deg/d |
Q | 2.878791117578678 | 1.8019e-08 | au |
|
| | Orbit Determination Parameters
Additional Information
|